Time,TemperatureF,DewpointF,PressureIn,WindDirection,WindDirectionDegrees,WindSpeedMPH,WindSpeedGustMPH,Humidity,HourlyPrecipIn,Conditions,Clouds,dailyrainin,SoftwareType,DateUTC
2013-01-02 00:12:00,0.2,-3.0,29.85,NNW,334,3.0,13.0,88,0.00,,,0.00,weatherlink.com 1.10,2013-01-02 05:12:00,
2013-01-02 00:27:00,0.3,-2.0,29.85,NW,319,11.0,11.0,88,0.00,,,0.00,weatherlink.com 1.10,2013-01-02 05:27:00,
2013-01-02 00:42:00,0.4,-2.0,29.84,NNE,22,3.0,13.0,88,0.00,,,0.00,weatherlink.com 1.10,2013-01-02 05:42:00,
2013-01-02 00:57:00,0.5,-3.0,29.84,NNE,27,3.0,12.0,87,0.00,,,0.00,weatherlink.com 1.10,2013-01-02 05:57:00,
2013-01-02 01:12:00,0.4,-2.0,29.85,North,355,3.0,13.0,88,0.00,,,0.00,weatherlink.com 1.10,2013-01-02 06:12:00,
2013-01-02 01:27:00,0.6,-2.0,29.84,North,355,5.0,14.0,88,0.00,,,0.00,weatherlink.com 1.10,2013-01-02 06:27:00,
2013-01-02 01:42:00,0.7,-2.0,29.85,NNW,345,7.0,14.0,88,0.00,,,0.00,weatherlink.com 1.10,2013-01-02 06:42:00,
2013-01-02 01:57:00,0.7,-2.0,29.86,North,360,6.0,16.0,88,0.00,,,0.00,weatherlink.com 1.10,2013-01-02 06:57:00,
2013-01-02 02:13:00,0.9,-2.0,29.86,NNE,15,3.0,11.0,88,0.00,,,0.00,weatherlink.com 1.10,2013-01-02 07:13:00,
2013-01-02 02:28:00,1.1,-2.0,29.86,NNE,17,7.0,11.0,88,0.00,,,0.00,weatherlink.com 1.10,2013-01-02 07:28:00,
2013-01-02 02:43:00,1.2,-2.0,29.86,NNE,12,6.0,13.0,88,0.00,,,0.00,weatherlink.com 1.10,2013-01-02 07:43:00,
2013-01-02 02:58:00,1.2,-2.0,29.86,NW,321,4.0,11.0,88,0.00,,,0.00,weatherlink.com 1.10,2013-01-02 07:58:00,
2013-01-02 03:13:00,1.3,-1.0,29.86,NNW,345,6.0,12.0,88,0.00,,,0.00,weatherlink.com 1.10,2013-01-02 08:13:00,
2013-01-02 03:28:00,1.3,-1.0,29.85,North,351,2.0,10.0,88,0.00,,,0.00,weatherlink.com 1.10,2013-01-02 08:28:00,
2013-01-02 03:43:00,1.1,-2.0,29.85,NNW,345,3.0,12.0,88,0.00,,,0.00,weatherlink.com 1.10,2013-01-02 08:43:00,
2013-01-02 03:59:00,1.0,-2.0,29.86,NNW,342,0.0,8.0,88,0.00,,,0.00,weatherlink.com 1.10,2013-01-02 08:59:00,
2013-01-02 04:14:00,0.9,-2.0,29.85,NNW,335,1.0,5.0,88,0.00,,,0.00,weatherlink.com 1.10,2013-01-02 09:14:00,
2013-01-02 04:29:00,0.8,-2.0,29.85,North,360,2.0,9.0,88,0.00,,,0.00,weatherlink.com 1.10,2013-01-02 09:29:00,
2013-01-02 04:44:00,0.6,-2.0,29.85,North,360,3.0,8.0,87,0.00,,,0.00,weatherlink.com 1.10,2013-01-02 09:44:00,
2013-01-02 04:59:00,0.5,-3.0,29.86,North,11,3.0,8.0,87,0.00,,,0.00,weatherlink.com 1.10,2013-01-02 09:59:00,
2013-01-02 05:14:00,0.5,-2.0,29.86,NNW,334,4.0,8.0,88,0.00,,,0.00,weatherlink.com 1.10,2013-01-02 10:14:00,
2013-01-02 05:29:00,0.5,-3.0,29.86,North,11,1.0,8.0,87,0.00,,,0.00,weatherlink.com 1.10,2013-01-02 10:29:00,
2013-01-02 05:45:00,0.4,-3.0,29.86,NNE,15,2.0,7.0,87,0.00,,,0.00,weatherlink.com 1.10,2013-01-02 10:45:00,
2013-01-02 06:00:00,0.4,-3.0,29.86,North,5,3.0,7.0,87,0.00,,,0.00,weatherlink.com 1.10,2013-01-02 11:00:00,
2013-01-02 06:15:00,0.3,-2.0,29.85,NNE,26,3.0,6.0,88,0.00,,,0.00,weatherlink.com 1.10,2013-01-02 11:15:00,
2013-01-02 06:45:00,0.2,-3.0,29.85,NNE,31,0.0,5.0,88,0.00,,,0.00,weatherlink.com 1.10,2013-01-02 11:45:00,
2013-01-02 07:00:00,0.3,-2.0,29.86,North,5,0.0,5.0,88,0.00,,,0.00,weatherlink.com 1.10,2013-01-02 12:00:00,
2013-01-02 07:16:00,0.4,-2.0,29.86,NNE,17,3.0,4.0,88,0.00,,,0.00,weatherlink.com 1.10,2013-01-02 12:16:00,
2013-01-02 07:31:00,0.5,-2.0,29.87,North,360,0.0,5.0,88,0.00,,,0.00,weatherlink.com 1.10,2013-01-02 12:31:00,
2013-01-02 07:46:00,0.6,-2.0,29.87,NNE,28,4.0,5.0,88,0.00,,,0.00,weatherlink.com 1.10,2013-01-02 12:46:00,
2013-01-02 08:01:00,0.9,-2.0,29.88,NNW,333,3.0,6.0,88,0.00,,,0.00,weatherlink.com 1.10,2013-01-02 13:01:00,
2013-01-02 08:16:00,1.2,-2.0,29.88,North,11,1.0,6.0,88,0.00,,,0.00,weatherlink.com 1.10,2013-01-02 13:16:00,
2013-01-02 08:31:00,1.5,-1.0,29.89,NNE,18,2.0,7.0,88,0.00,,,0.00,weatherlink.com 1.10,2013-01-02 13:31:00,
2013-01-02 08:46:00,1.8,-1.0,29.89,North,5,2.0,8.0,88,0.00,,,0.00,weatherlink.com 1.10,2013-01-02 13:46:00,
2013-01-02 09:02:00,2.0,-1.0,29.90,NNE,19,4.0,12.0,88,0.00,,,0.00,weatherlink.com 1.10,2013-01-02 14:02:00,
2013-01-02 09:17:00,2.3,0.0,29.91,North,5,5.0,8.0,88,0.00,,,0.00,weatherlink.com 1.10,2013-01-02 14:17:00,
2013-01-02 09:32:00,2.7,0.0,29.91,NNE,24,7.0,10.0,87,0.00,,,0.00,weatherlink.com 1.10,2013-01-02 14:32:00,
2013-01-02 09:47:00,2.4,-1.0,29.93,North,5,7.0,11.0,87,0.00,,,0.00,weatherlink.com 1.10,2013-01-02 14:47:00,
2013-01-02 10:02:00,2.7,0.0,29.93,NNE,15,2.0,10.0,88,0.00,,,0.00,weatherlink.com 1.10,2013-01-02 15:02:00,
2013-01-02 10:17:00,2.7,0.0,29.93,NNE,32,7.0,10.0,87,0.00,,,0.00,weatherlink.com 1.10,2013-01-02 15:17:00,
2013-01-02 10:32:00,3.0,0.0,29.94,NNW,339,4.0,10.0,87,0.00,,,0.00,weatherlink.com 1.10,2013-01-02 15:32:00,
2013-01-02 10:48:00,2.7,0.0,29.94,NNE,20,8.0,11.0,87,0.00,,,0.00,weatherlink.com 1.10,2013-01-02 15:48:00,
2013-01-02 11:03:00,2.5,-1.0,29.94,NNE,29,7.0,18.0,87,0.00,,,0.00,weatherlink.com 1.10,2013-01-02 16:03:00,
2013-01-02 11:18:00,1.6,-2.0,29.95,North,11,8.0,16.0,86,0.00,,,0.00,weatherlink.com 1.10,2013-01-02 16:18:00,
2013-01-02 11:33:00,1.2,-2.0,29.95,NNE,28,5.0,14.0,86,0.00,,,0.00,weatherlink.com 1.10,2013-01-02 16:33:00,
2013-01-02 11:48:00,1.0,-2.0,29.95,NNE,15,13.0,16.0,86,0.00,,,0.00,weatherlink.com 1.10,2013-01-02 16:48:00,
2013-01-02 12:03:00,0.7,-3.0,29.95,NNW,347,4.0,11.0,86,0.00,,,0.00,weatherlink.com 1.10,2013-01-02 17:03:00,
2013-01-02 12:18:00,-0.3,-4.0,29.95,North,350,4.0,15.0,86,0.00,,,0.00,weatherlink.com 1.10,2013-01-02 17:18:00,
2013-01-02 12:34:00,-1.4,-5.0,29.96,NNE,26,7.0,19.0,85,0.00,,,0.00,weatherlink.com 1.10,2013-01-02 17:34:00,
2013-01-02 12:49:00,-1.8,-5.0,29.96,NNE,24,8.0,15.0,86,0.00,,,0.00,weatherlink.com 1.10,2013-01-02 17:49:00,
2013-01-02 13:04:00,-2.2,-5.0,29.97,North,5,5.0,11.0,86,0.00,,,0.00,weatherlink.com 1.10,2013-01-02 18:04:00,
2013-01-02 13:19:00,-2.4,-6.0,29.97,North,5,9.0,12.0,85,0.00,,,0.00,weatherlink.com 1.10,2013-01-02 18:19:00,
2013-01-02 13:34:00,-2.6,-6.0,29.98,NNE,15,5.0,12.0,86,0.00,,,0.00,weatherlink.com 1.10,2013-01-02 18:34:00,
2013-01-02 13:50:00,-2.8,-6.0,29.99,NE,34,8.0,11.0,86,0.00,,,0.00,weatherlink.com 1.10,2013-01-02 18:50:00,
2013-01-02 14:20:00,-3.1,-6.0,30.00,NNE,26,7.0,13.0,86,0.00,,,0.00,weatherlink.com 1.10,2013-01-02 19:20:00,
2013-01-02 14:35:00,-3.1,-6.0,30.01,NNE,22,10.0,16.0,86,0.00,,,0.00,weatherlink.com 1.10,2013-01-02 19:35:00,
2013-01-02 14:51:00,-3.5,-7.0,30.02,NNW,341,9.0,16.0,85,0.00,,,0.00,weatherlink.com 1.10,2013-01-02 19:51:00,
2013-01-02 15:06:00,-4.1,-8.0,30.03,North,5,7.0,20.0,85,0.00,,,0.00,weatherlink.com 1.10,2013-01-02 20:06:00,
2013-01-02 15:21:00,-4.3,-7.0,30.04,NNW,344,4.0,14.0,86,0.00,,,0.00,weatherlink.com 1.10,2013-01-02 20:21:00,
2013-01-02 15:36:00,-4.5,-8.0,30.05,NNE,14,5.0,15.0,85,0.00,,,0.00,weatherlink.com 1.10,2013-01-02 20:36:00,
2013-01-02 15:51:00,-4.9,-8.0,30.05,NNW,348,8.0,12.0,85,0.00,,,0.00,weatherlink.com 1.10,2013-01-02 20:51:00,
2013-01-02 16:07:00,-5.2,-9.0,30.06,North,5,9.0,9.0,85,0.00,,,0.00,weatherlink.com 1.10,2013-01-02 21:07:00,
2013-01-02 16:22:00,-5.6,-9.0,30.07,NNE,17,7.0,10.0,85,0.00,,,0.00,weatherlink.com 1.10,2013-01-02 21:22:00,
2013-01-02 16:37:00,-6.1,-9.0,30.08,North,11,1.0,11.0,85,0.00,,,0.00,weatherlink.com 1.10,2013-01-02 21:37:00,
2013-01-02 16:52:00,-6.5,-10.0,30.09,NE,40,10.0,12.0,85,0.00,,,0.00,weatherlink.com 1.10,2013-01-02 21:52:00,
2013-01-02 17:07:00,-7.0,-10.0,30.10,North,355,5.0,10.0,85,0.00,,,0.00,weatherlink.com 1.10,2013-01-02 22:07:00,
2013-01-02 17:23:00,-7.5,-11.0,30.11,NNW,345,5.0,7.0,85,0.00,,,0.00,weatherlink.com 1.10,2013-01-02 22:23:00,
2013-01-02 17:38:00,-7.9,-12.0,30.12,NE,34,4.0,10.0,84,0.00,,,0.00,weatherlink.com 1.10,2013-01-02 22:38:00,
2013-01-02 17:53:00,-8.2,-12.0,30.12,NNE,28,6.0,8.0,85,0.00,,,0.00,weatherlink.com 1.10,2013-01-02 22:53:00,
2013-01-02 18:08:00,-8.5,-12.0,30.13,North,5,6.0,10.0,84,0.00,,,0.00,weatherlink.com 1.10,2013-01-02 23:08:00,
2013-01-02 18:24:00,-8.7,-12.0,30.14,NNE,13,3.0,10.0,84,0.00,,,0.00,weatherlink.com 1.10,2013-01-02 23:24:00,
2013-01-02 18:39:00,-8.9,-12.0,30.14,North,355,4.0,10.0,85,0.00,,,0.00,weatherlink.com 1.10,2013-01-02 23:39:00,
2013-01-02 18:54:00,-9.1,-13.0,30.14,NNE,15,5.0,13.0,84,0.00,,,0.00,weatherlink.com 1.10,2013-01-02 23:54:00,
2013-01-02 19:09:00,-9.2,-13.0,30.15,NNE,13,4.0,10.0,84,0.00,,,0.00,weatherlink.com 1.10,2013-01-03 00:09:00,
2013-01-02 19:24:00,-9.4,-13.0,30.15,NNE,27,2.0,11.0,84,0.00,,,0.00,weatherlink.com 1.10,2013-01-03 00:24:00,
2013-01-02 19:40:00,-9.5,-13.0,30.16,NNW,348,2.0,10.0,84,0.00,,,0.00,weatherlink.com 1.10,2013-01-03 00:40:00,
2013-01-02 19:55:00,-9.7,-13.0,30.16,North,5,4.0,8.0,84,0.00,,,0.00,weatherlink.com 1.10,2013-01-03 00:55:00,
2013-01-02 20:10:00,-9.7,-13.0,30.16,North,355,3.0,11.0,84,0.00,,,0.00,weatherlink.com 1.10,2013-01-03 01:10:00,
2013-01-02 20:25:00,-9.8,-13.0,30.17,NNE,18,6.0,10.0,84,0.00,,,0.00,weatherlink.com 1.10,2013-01-03 01:25:00,
2013-01-02 20:40:00,-9.8,-13.0,30.17,North,5,7.0,9.0,84,0.00,,,0.00,weatherlink.com 1.10,2013-01-03 01:40:00,
2013-01-02 20:56:00,-9.9,-13.0,30.17,North,5,7.0,10.0,84,0.00,,,0.00,weatherlink.com 1.10,2013-01-03 01:56:00,
2013-01-02 21:12:00,-9.9,-13.0,30.16,North,355,5.0,10.0,84,0.00,,,0.00,weatherlink.com 1.10,2013-01-03 02:12:00,
2013-01-02 21:26:00,-9.8,-13.0,30.16,NNW,332,7.0,11.0,84,0.00,,,0.00,weatherlink.com 1.10,2013-01-03 02:26:00,
2013-01-02 21:41:00,-9.9,-13.0,30.17,NNW,340,6.0,13.0,84,0.00,,,0.00,weatherlink.com 1.10,2013-01-03 02:41:00,
2013-01-02 21:57:00,-10.0,-14.0,30.18,North,5,4.0,9.0,84,0.00,,,0.00,weatherlink.com 1.10,2013-01-03 02:57:00,
2013-01-02 22:12:00,-9.9,-13.0,30.19,NNW,345,2.0,8.0,84,0.00,,,0.00,weatherlink.com 1.10,2013-01-03 03:12:00,
2013-01-02 22:28:00,-10.0,-14.0,30.19,North,5,1.0,7.0,84,0.00,,,0.00,weatherlink.com 1.10,2013-01-03 03:28:00,
2013-01-02 22:42:00,-10.3,-14.0,30.19,North,10,2.0,5.0,84,0.00,,,0.00,weatherlink.com 1.10,2013-01-03 03:42:00,
2013-01-02 22:57:00,-10.4,-14.0,30.20,NW,313,4.0,5.0,84,0.00,,,0.00,weatherlink.com 1.10,2013-01-03 03:57:00,
2013-01-02 23:13:00,-10.6,-14.0,30.19,NE,40,0.0,4.0,84,0.00,,,0.00,weatherlink.com 1.10,2013-01-03 04:13:00,
2013-01-02 23:29:00,-10.7,-14.0,30.20,NNW,342,3.0,5.0,84,0.00,,,0.00,weatherlink.com 1.10,2013-01-03 04:29:00,
2013-01-02 23:43:00,-10.6,-14.0,30.20,North,360,3.0,6.0,84,0.00,,,0.00,weatherlink.com 1.10,2013-01-03 04:43:00,
2013-01-02 23:58:00,-10.5,-14.0,30.20,North,11,5.0,8.0,84,0.00,,,0.00,weatherlink.com 1.10,2013-01-03 04:58:00,